BAW2424 EGPH-EGCC

Flight info

Callsign BAW2424
Flight time 0h 44m
Altitude 23000
Route GOSAM1D GOSAM P600 FENIK L612 LAKEY LAKEY1M
Aircraft A320/M-SDE3FGHIRWY/LB1

Departure

Time 2026-04-20 18:42
Airport Edinburgh Airport (EGPH)

Arrival

Time 2026-04-20 19:26
Airport Manchester Airport (EGCC)
Time Latitude Longitude Altitude Speed Heading
2026-04-20 18:08 55.94572 -3.36623 116 ft 0 kts 89°
2026-04-20 18:23 55.94571 -3.36628 116 ft 3 kts 89°
2026-04-20 18:23 55.94571 -3.36674 116 ft 4 kts 88°
2026-04-20 18:23 55.94571 -3.36710 115 ft 4 kts 133°
2026-04-20 18:23 55.94590 -3.36740 113 ft 4 kts 159°
2026-04-20 18:24 55.94615 -3.36744 113 ft 4 kts 193°
2026-04-20 18:24 55.94641 -3.36734 115 ft 4 kts 179°
2026-04-20 18:24 55.94668 -3.36735 116 ft 4 kts 179°
2026-04-20 18:24 55.94683 -3.36735 114 ft 0 kts 185°
2026-04-20 18:25 55.94681 -3.36735 114 ft 3 kts 185°
2026-04-20 18:25 55.94663 -3.36738 113 ft 0 kts 187°
2026-04-20 18:25 55.94661 -3.36721 113 ft 2 kts 93°
2026-04-20 18:25 55.94662 -3.36719 113 ft 0 kts 73°
2026-04-20 18:26 55.94663 -3.36718 113 ft 0 kts 60°
2026-04-20 18:26 55.94666 -3.36718 113 ft 0 kts 32°
2026-04-20 18:26 55.94668 -3.36720 112 ft 0 kts
2026-04-20 18:30 55.94669 -3.36720 112 ft 2 kts
2026-04-20 18:30 55.94672 -3.36720 112 ft 2 kts
2026-04-20 18:30 55.94690 -3.36723 113 ft 0 kts 354°
2026-04-20 18:30 55.94720 -3.36731 115 ft 10 kts 349°
2026-04-20 18:31 55.94760 -3.36746 116 ft 4 kts 347°
2026-04-20 18:31 55.94787 -3.36757 116 ft 6 kts 348°
2026-04-20 18:31 55.94825 -3.36768 116 ft 8 kts 354°
2026-04-20 18:31 55.94890 -3.36802 114 ft 9 kts 330°
2026-04-20 18:32 55.94924 -3.36891 115 ft 12 kts 265°
2026-04-20 18:32 55.94875 -3.37050 112 ft 15 kts 238°
2026-04-20 18:32 55.94831 -3.37176 113 ft 14 kts 238°
2026-04-20 18:32 55.94789 -3.37300 112 ft 10 kts 239°
2026-04-20 18:33 55.94745 -3.37433 111 ft 14 kts 239°
2026-04-20 18:33 55.94691 -3.37590 116 ft 16 kts 239°
2026-04-20 18:33 55.94648 -3.37722 113 ft 9 kts 239°
2026-04-20 18:33 55.94611 -3.37826 115 ft 11 kts 237°
2026-04-20 18:34 55.94566 -3.37954 115 ft 13 kts 238°
2026-04-20 18:34 55.94514 -3.38108 113 ft 16 kts 239°
2026-04-20 18:34 55.94462 -3.38267 113 ft 14 kts 239°
2026-04-20 18:34 55.94413 -3.38413 114 ft 12 kts 239°
2026-04-20 18:35 55.94365 -3.38550 115 ft 13 kts 236°
2026-04-20 18:35 55.94333 -3.38643 114 ft 8 kts 238°
2026-04-20 18:35 55.94322 -3.38675 115 ft 2 kts 238°
2026-04-20 18:35 55.94308 -3.38715 114 ft 5 kts 239°
2026-04-20 18:36 55.94284 -3.38788 115 ft 6 kts 240°
2026-04-20 18:36 55.94277 -3.38819 112 ft 1 kts 251°
2026-04-20 18:36 55.94281 -3.38841 116 ft 3 kts 286°
2026-04-20 18:36 55.94301 -3.38881 114 ft 6 kts 319°
2026-04-20 18:37 55.94319 -3.38902 114 ft 0 kts 327°
2026-04-20 18:39 55.94320 -3.38903 116 ft 1 kts 327°
2026-04-20 18:39 55.94349 -3.38932 112 ft 6 kts 333°
2026-04-20 18:40 55.94383 -3.38958 114 ft 9 kts 352°
2026-04-20 18:40 55.94418 -3.38938 114 ft 1 kts 28°
2026-04-20 18:40 55.94418 -3.38937 114 ft 0 kts 30°
2026-04-20 18:40 55.94436 -3.38894 114 ft 16 kts 55°
2026-04-20 18:41 55.94563 -3.38535 113 ft 51 kts 59°
2026-04-20 18:41 55.94850 -3.37690 114 ft 110 kts 59°
2026-04-20 18:41 55.95322 -3.36311 205 ft 144 kts 59°
2026-04-20 18:41 55.95813 -3.34789 611 ft 138 kts 58°
2026-04-20 18:42 55.96472 -3.33520 788 ft 148 kts 43°
2026-04-20 18:42 55.97275 -3.32248 1533 ft 155 kts 45°
2026-04-20 18:42 55.98043 -3.31021 1794 ft 150 kts 45°
2026-04-20 18:42 55.98877 -3.29676 2063 ft 173 kts 45°
2026-04-20 18:43 55.99927 -3.28354 2434 ft 200 kts 24°
2026-04-20 18:43 56.01356 -3.28173 2676 ft 221 kts 349°
2026-04-20 18:43 56.02718 -3.29706 3120 ft 246 kts 310°
2026-04-20 18:43 56.03349 -3.32640 3733 ft 266 kts 272°
2026-04-20 18:44 56.03164 -3.35971 4581 ft 273 kts 258°
2026-04-20 18:44 56.02709 -3.39288 5515 ft 278 kts 255°
2026-04-20 18:44 56.02159 -3.42644 5881 ft 281 kts 252°
2026-04-20 18:44 56.01592 -3.45982 5991 ft 280 kts 252°
2026-04-20 18:45 56.01043 -3.49325 6011 ft 279 kts 253°
2026-04-20 18:45 56.00528 -3.52629 6014 ft 278 kts 254°
2026-04-20 18:45 56.00023 -3.56015 6011 ft 280 kts 255°
2026-04-20 18:45 55.99543 -3.59333 6009 ft 279 kts 255°
2026-04-20 18:46 55.99057 -3.62723 6007 ft 282 kts 255°
2026-04-20 18:46 55.98575 -3.66107 6007 ft 279 kts 255°
2026-04-20 18:46 55.98096 -3.69476 6006 ft 280 kts 255°
2026-04-20 18:46 55.97619 -3.72820 6004 ft 277 kts 255°
2026-04-20 18:47 55.97140 -3.76166 5995 ft 279 kts 255°
2026-04-20 18:47 55.96657 -3.79519 5994 ft 279 kts 255°
2026-04-20 18:47 55.96174 -3.82842 5994 ft 281 kts 255°
2026-04-20 18:47 55.95680 -3.86228 5994 ft 281 kts 255°
2026-04-20 18:48 55.95188 -3.89590 6007 ft 282 kts 255°
2026-04-20 18:48 55.94691 -3.92981 6858 ft 281 kts 255°
2026-04-20 18:48 55.94194 -3.96351 7812 ft 282 kts 252°
2026-04-20 18:48 55.93448 -3.99598 8690 ft 284 kts 239°
2026-04-20 18:49 55.92318 -4.02486 9563 ft 285 kts 225°
2026-04-20 18:49 55.90856 -4.04856 10435 ft 284 kts 213°
2026-04-20 18:49 55.89191 -4.06950 10821 ft 304 kts 212°
2026-04-20 18:49 55.87394 -4.09207 11039 ft 328 kts 212°
2026-04-20 18:50 55.85469 -4.11633 11264 ft 348 kts 213°
2026-04-20 18:50 55.83463 -4.14176 11836 ft 357 kts 213°
2026-04-20 18:50 55.81432 -4.16763 12543 ft 361 kts 213°
2026-04-20 18:50 55.79377 -4.19382 13276 ft 366 kts 213°
2026-04-20 18:51 55.77282 -4.22001 13997 ft 370 kts 210°
2026-04-20 18:51 55.75011 -4.24014 14635 ft 371 kts 198°
2026-04-20 18:51 55.72507 -4.25133 15275 ft 371 kts 185°
2026-04-20 18:51 55.69934 -4.25281 15914 ft 371 kts 173°
2026-04-20 18:52 55.67395 -4.24473 16533 ft 371 kts 161°
2026-04-20 18:52 55.64989 -4.22777 17168 ft 373 kts 152°
2026-04-20 18:52 55.62712 -4.20550 17783 ft 375 kts 149°
2026-04-20 18:52 55.60419 -4.18294 18415 ft 378 kts 150°
2026-04-20 18:53 55.58106 -4.16026 18960 ft 382 kts 150°
2026-04-20 18:53 55.55767 -4.13743 19496 ft 386 kts 150°
2026-04-20 18:53 55.53434 -4.11477 20051 ft 389 kts 150°
2026-04-20 18:53 55.51062 -4.09171 20680 ft 391 kts 150°
2026-04-20 18:54 55.48672 -4.06846 21267 ft 394 kts 150°
2026-04-20 18:54 55.46257 -4.04491 21781 ft 398 kts 150°
2026-04-20 18:54 55.43818 -4.02113 22212 ft 404 kts 152°
2026-04-20 18:54 55.41339 -3.99702 22660 ft 409 kts 152°
2026-04-20 18:55 55.38821 -3.97267 23125 ft 414 kts 152°
2026-04-20 18:55 55.36278 -3.94815 23321 ft 419 kts 152°
2026-04-20 18:55 55.33671 -3.92304 23340 ft 433 kts 152°
2026-04-20 18:55 55.31010 -3.89738 23337 ft 439 kts 152°
2026-04-20 18:56 55.28322 -3.87146 23334 ft 440 kts 152°
2026-04-20 18:56 55.25632 -3.84560 23325 ft 440 kts 152°
2026-04-20 18:56 55.22946 -3.81988 23335 ft 441 kts 151°
2026-04-20 18:56 55.20290 -3.79451 23327 ft 440 kts 152°
2026-04-20 18:57 55.17587 -3.76867 23329 ft 444 kts 152°
2026-04-20 18:57 55.14863 -3.74264 23329 ft 446 kts 152°
2026-04-20 18:57 55.12138 -3.71662 23331 ft 447 kts 152°
2026-04-20 18:57 55.09411 -3.69061 23328 ft 447 kts 152°
2026-04-20 18:58 55.06678 -3.66463 23326 ft 447 kts 152°
2026-04-20 18:58 55.03950 -3.63879 23325 ft 446 kts 152°
2026-04-20 18:58 55.01218 -3.61297 23094 ft 446 kts 152°
2026-04-20 18:58 54.98492 -3.58728 22802 ft 444 kts 152°
2026-04-20 18:59 54.95787 -3.56176 22546 ft 441 kts 152°
2026-04-20 18:59 54.93078 -3.53625 22263 ft 442 kts 152°
2026-04-20 18:59 54.90379 -3.51091 21983 ft 442 kts 152°
2026-04-20 18:59 54.87678 -3.48557 21713 ft 440 kts 152°
2026-04-20 19:00 54.84985 -3.46032 21453 ft 438 kts 152°
2026-04-20 19:00 54.82345 -3.43557 21188 ft 436 kts 152°
2026-04-20 19:00 54.79686 -3.41064 20916 ft 434 kts 152°
2026-04-20 19:00 54.77034 -3.38583 20663 ft 431 kts 152°
2026-04-20 19:01 54.74400 -3.36126 20419 ft 429 kts 151°
2026-04-20 19:01 54.71771 -3.33704 20155 ft 427 kts 152°
2026-04-20 19:01 54.69099 -3.31460 19905 ft 426 kts 155°
2026-04-20 19:01 54.66391 -3.29385 19654 ft 426 kts 156°
2026-04-20 19:02 54.63660 -3.27407 19398 ft 425 kts 157°
2026-04-20 19:02 54.60936 -3.25469 19155 ft 422 kts 157°
2026-04-20 19:02 54.58225 -3.23530 18907 ft 420 kts 156°
2026-04-20 19:02 54.55533 -3.21573 18667 ft 418 kts 156°
2026-04-20 19:03 54.52866 -3.19611 18399 ft 416 kts 156°
2026-04-20 19:03 54.51104 -3.18303 18213 ft 415 kts 156°
2026-04-20 19:03 54.48454 -3.16324 17935 ft 414 kts 155°
2026-04-20 19:03 54.45824 -3.14354 17658 ft 412 kts 155°
2026-04-20 19:04 54.43192 -3.12384 17387 ft 412 kts 155°
2026-04-20 19:04 54.40573 -3.10431 17112 ft 411 kts 156°
2026-04-20 19:04 54.37955 -3.08486 16838 ft 409 kts 155°
2026-04-20 19:04 54.35346 -3.06557 16581 ft 407 kts 155°
2026-04-20 19:05 54.32750 -3.04643 16327 ft 405 kts 155°
2026-04-20 19:05 54.30161 -3.02738 16059 ft 404 kts 155°
2026-04-20 19:05 54.27616 -3.00869 15795 ft 402 kts 156°
2026-04-20 19:05 54.25050 -2.98978 15548 ft 400 kts 154°
2026-04-20 19:06 54.22621 -2.96718 15295 ft 396 kts 146°
2026-04-20 19:06 54.20324 -2.94116 15045 ft 396 kts 146°
2026-04-20 19:06 54.18013 -2.91503 14794 ft 398 kts 146°
2026-04-20 19:06 54.15709 -2.88911 14550 ft 397 kts 146°
2026-04-20 19:07 54.13395 -2.86319 14300 ft 396 kts 146°
2026-04-20 19:07 54.11099 -2.83752 14032 ft 394 kts 146°
2026-04-20 19:07 54.08808 -2.81197 13762 ft 392 kts 146°
2026-04-20 19:07 54.06541 -2.78669 13184 ft 382 kts 146°
2026-04-20 19:08 54.04337 -2.76218 11953 ft 376 kts 146°
2026-04-20 19:08 54.00093 -2.71499 10441 ft 342 kts 146°
2026-04-20 19:08 53.98210 -2.69413 10299 ft 314 kts 146°
2026-04-20 19:09 53.96449 -2.67464 10162 ft 291 kts 146°
2026-04-20 19:09 53.94793 -2.65625 9730 ft 280 kts 146°
2026-04-20 19:09 53.93179 -2.63832 9162 ft 275 kts 146°
2026-04-20 19:09 53.91586 -2.62066 8570 ft 272 kts 146°
2026-04-20 19:10 53.89997 -2.60310 7942 ft 272 kts 145°
2026-04-20 19:10 53.88420 -2.58563 7440 ft 268 kts 146°
2026-04-20 19:10 53.86915 -2.56901 7329 ft 253 kts 146°
2026-04-20 19:10 53.85447 -2.55285 7343 ft 252 kts 146°
2026-04-20 19:11 53.83978 -2.53667 7342 ft 251 kts 146°
2026-04-20 19:11 53.82513 -2.52050 7340 ft 251 kts 146°
2026-04-20 19:11 53.81052 -2.50436 7344 ft 250 kts 145°
2026-04-20 19:11 53.79588 -2.48824 7345 ft 250 kts 146°
2026-04-20 19:12 53.78126 -2.47223 7344 ft 251 kts 146°
2026-04-20 19:12 53.76659 -2.45623 7343 ft 251 kts 146°
2026-04-20 19:12 53.75197 -2.44025 7343 ft 250 kts 146°
2026-04-20 19:12 53.73733 -2.42423 7346 ft 250 kts 146°
2026-04-20 19:13 53.72273 -2.40823 7345 ft 250 kts 146°
2026-04-20 19:13 53.70810 -2.39216 7343 ft 251 kts 145°
2026-04-20 19:13 53.69344 -2.37610 7344 ft 251 kts 145°
2026-04-20 19:13 53.67875 -2.36005 7343 ft 251 kts 145°
2026-04-20 19:14 53.66427 -2.34413 7345 ft 251 kts 146°
2026-04-20 19:14 53.64968 -2.32792 7292 ft 250 kts 147°
2026-04-20 19:14 53.63341 -2.31828 7031 ft 250 kts 176°
2026-04-20 19:14 53.61646 -2.32359 6738 ft 251 kts 204°
2026-04-20 19:15 53.60106 -2.33735 6380 ft 248 kts 209°
2026-04-20 19:15 53.58624 -2.35209 6342 ft 249 kts 210°
2026-04-20 19:15 53.57128 -2.36715 6343 ft 251 kts 210°
2026-04-20 19:15 53.55631 -2.38223 6342 ft 251 kts 210°
2026-04-20 19:16 53.54132 -2.39734 6341 ft 252 kts 210°
2026-04-20 19:16 53.52630 -2.41251 6339 ft 252 kts 210°
2026-04-20 19:16 53.51123 -2.42778 6340 ft 252 kts 210°
2026-04-20 19:16 53.49641 -2.44278 6340 ft 251 kts 210°
2026-04-20 19:17 53.48119 -2.45814 6339 ft 251 kts 210°
2026-04-20 19:17 53.46619 -2.47321 6339 ft 251 kts 210°
2026-04-20 19:17 53.45139 -2.48808 6329 ft 252 kts 210°
2026-04-20 19:17 53.43639 -2.50319 6329 ft 251 kts 210°
2026-04-20 19:18 53.42142 -2.51831 6326 ft 252 kts 210°
2026-04-20 19:18 53.40635 -2.53354 6328 ft 252 kts 210°
2026-04-20 19:18 53.39132 -2.54868 6329 ft 252 kts 210°
2026-04-20 19:18 53.37633 -2.56371 6324 ft 250 kts 210°
2026-04-20 19:19 53.36141 -2.57870 6326 ft 248 kts 210°
2026-04-20 19:19 53.34696 -2.59357 5826 ft 240 kts 210°
2026-04-20 19:19 53.33297 -2.60837 5020 ft 237 kts 210°
2026-04-20 19:19 53.31910 -2.62331 4181 ft 236 kts 210°
2026-04-20 19:20 53.30478 -2.63626 3371 ft 231 kts 191°
2026-04-20 19:20 53.28931 -2.63527 3061 ft 225 kts 158°
2026-04-20 19:20 53.27489 -2.62460 2996 ft 228 kts 151°
2026-04-20 19:20 53.26082 -2.61248 3004 ft 228 kts 150°
2026-04-20 19:21 53.24672 -2.60013 3008 ft 227 kts 149°
2026-04-20 19:21 53.23504 -2.58300 3007 ft 225 kts 122°
2026-04-20 19:21 53.22952 -2.55890 3006 ft 225 kts 97°
2026-04-20 19:21 53.23096 -2.53309 3007 ft 225 kts 72°
2026-04-20 19:22 53.23898 -2.51075 3013 ft 227 kts 54°
2026-04-20 19:22 53.24901 -2.49036 3010 ft 228 kts 53°
2026-04-20 19:22 53.25889 -2.47029 2982 ft 226 kts 53°
2026-04-20 19:22 53.26850 -2.45063 2762 ft 209 kts 53°
2026-04-20 19:23 53.27739 -2.43240 2495 ft 195 kts 54°
2026-04-20 19:23 53.28569 -2.41534 2232 ft 184 kts 54°
2026-04-20 19:23 53.29350 -2.39927 1978 ft 173 kts 54°
2026-04-20 19:23 53.30090 -2.38404 1754 ft 164 kts 54°
2026-04-20 19:24 53.30792 -2.36958 1527 ft 156 kts 56°
2026-04-20 19:24 53.31462 -2.35577 1346 ft 151 kts 54°
2026-04-20 19:24 53.32129 -2.34199 1131 ft 159 kts 54°
2026-04-20 19:24 53.32822 -2.32769 860 ft 151 kts 53°
2026-04-20 19:25 53.33452 -2.31473 662 ft 141 kts 53°
2026-04-20 19:25 53.34067 -2.30215 465 ft 139 kts 52°
2026-04-20 19:25 53.34663 -2.28979 293 ft 137 kts 53°
2026-04-20 19:25 53.35219 -2.27797 249 ft 105 kts 52°
2026-04-20 19:26 53.35528 -2.27177 261 ft 42 kts 50°
2026-04-20 19:26 53.35601 -2.27055 264 ft 0 kts 30°
2026-04-20 19:26 53.35622 -2.27068 265 ft 7 kts 318°
2026-04-20 19:26 53.35642 -2.27108 265 ft 1 kts 316°
2026-04-20 19:27 53.35658 -2.27130 263 ft 6 kts 319°
2026-04-20 19:27 53.35675 -2.27157 261 ft 0 kts 319°
2026-04-20 19:28 53.35676 -2.27157 261 ft 0 kts 319°
2026-04-20 19:28 53.35680 -2.27164 260 ft 3 kts 319°
2026-04-20 19:29 53.35708 -2.27219 255 ft 6 kts 295°
2026-04-20 19:29 53.35709 -2.27223 255 ft 2 kts 294°
2026-04-20 19:29 53.35718 -2.27262 252 ft 2 kts 279°
2026-04-20 19:29 53.35716 -2.27269 252 ft 1 kts 253°
2026-04-20 19:30 53.35706 -2.27294 252 ft 3 kts 225°
2026-04-20 19:30 53.35704 -2.27297 252 ft 0 kts 225°
2026-04-20 19:30 53.35685 -2.27330 252 ft 4 kts 227°
2026-04-20 19:30 53.35665 -2.27367 253 ft 8 kts 229°
2026-04-20 19:31 53.35626 -2.27446 253 ft 8 kts 231°
2026-04-20 19:31 53.35609 -2.27480 253 ft 8 kts 231°
2026-04-20 19:31 53.35566 -2.27566 248 ft 10 kts 230°
2026-04-20 19:31 53.35512 -2.27677 248 ft 12 kts 232°
2026-04-20 19:32 53.35465 -2.27788 249 ft 14 kts 246°
2026-04-20 19:32 53.35504 -2.27912 246 ft 13 kts 354°
2026-04-20 19:32 53.35600 -2.27900 247 ft 13 kts
2026-04-20 19:32 53.35707 -2.27880 247 ft 17 kts
2026-04-20 19:33 53.35798 -2.27864 247 ft 10 kts
2026-04-20 19:33 53.35901 -2.27850 247 ft 20 kts
2026-04-20 19:33 53.36015 -2.27941 247 ft 21 kts 316°
2026-04-20 19:33 53.36122 -2.28118 247 ft 21 kts 315°
2026-04-20 19:34 53.36214 -2.28269 247 ft 21 kts 315°
2026-04-20 19:34 53.36316 -2.28438 247 ft 14 kts 316°
2026-04-20 19:34 53.36419 -2.28498 247 ft 12 kts 331°
2026-04-20 19:34 53.36491 -2.28608 247 ft 13 kts 316°
2026-04-20 19:35 53.36566 -2.28737 247 ft 15 kts 308°
2026-04-20 19:35 53.36620 -2.28864 247 ft 15 kts 313°
2026-04-20 19:35 53.36703 -2.28969 247 ft 17 kts 316°
2026-04-20 19:35 53.36809 -2.29018 247 ft 13 kts 23°
2026-04-20 19:36 53.36882 -2.28913 247 ft 15 kts 45°
2026-04-20 19:36 53.36919 -2.28834 247 ft 1 kts 102°
2026-04-20 19:36 53.36897 -2.28798 247 ft 9 kts 136°
2026-04-20 19:36 53.36894 -2.28794 247 ft 0 kts 136°